Weather in Kosolapovo

Russia / Mari El Republic     56°55′33″N   49°36′00″E
temp.,
°C
wind,
m/s
gust,
m/s
humid.,
%
clouds,
%
prec.,
mm/h
press.,
hPa
HPBL,
m
26 july, mon
mon2600:00+11wsw36596 0.0 102169
03:00+10w34647 0.0 102148
06:00+14w3559100 0.0 1021157
09:00+20w46455 0.0 10201038
12:00+22w564088 0.0 10202503
15:00+19w255499 0.0 1019237
18:00+19wsw385798 0.0 1018253
21:00+15wsw410655 0.0 1018170
27 july, tue
tue2700:00+17wsw5135530 0.0 1016414
03:00+15w5136857 0.0 1016324
06:00+15nw597733 0.0 1016437
09:00+19nnw57494 0.0 10171060
12:00+21nw58430 0.0 10161927
15:00+23nw69376 0.0 10152645
18:00+20nnw48485 0.0 1015581
21:00+13nnw33614 0.0 101622
28 july, wed
wed2800:00+11wnw11720 0.0 101610
03:00+10wnw22740 0.0 101615
06:00+13nw35655 0.0 1016168
09:00+19nw46455 0.0 10151334
12:00+21nw463668 0.0 10151718
15:00+22nw45340 0.0 10142019
18:00+21w24480 0.0 1013134
21:00+15sw33555 0.0 101225
29 july, thu
thu2900:00+13sw355712 0.0 101265
03:00+13sw385842 0.0 1011133
06:00+16sw3866100 0.0 1010205
09:00+23sw5754100 0.0 1008665
12:00+22sw7861100 0.0 10061134
15:00+17ssw4996100 2.2 1005494
18:00+16ssw3897100 1.1 1003442
21:00+16wsw3898100 1.3 1002424
30 july, fri
fri3000:00+16wsw379798 0.1 1002239
03:00+15wsw4119846 0.1 1002271
06:00+18wsw5129131 0.1 1001444
09:00+21wnw797176 0.1 10021101
12:00+24wnw58535 0.1 10031446
15:00+26w6843100 0.1 10042390
18:00+22w3662100 0.0 1004138
21:00+20sw356660 0.0 100583